Home > Time Zones > World Clock > Weather > Norway > Moss > Past weeks

Flag for Norway Weather past 2 weeks in Moss, Norway

Now
57 °F

Mostly cloudy.


Feels Like: 55 °F
Forecast: 53 / 59 °F
Wind: 8 mph from East

Location: Rygge

Current Time: Aug 30, 2014 at 5:07:24 AM

Latest Report: Aug 30, 2014 at 4:20 AM


Visibility: N/A

Pressure: 29.95 "Hg

Humidity: 82%

Dew point: 52 °F

Location of MossLocation

Historic Weather in Moss — Graph

°F

Moss temperature yesterday

Maximum temperature yesterday: 68 °F (at 12:50 PM)
Minimum temperature yesterday: 46 °F (at 3:50 AM)
Average temperature yesterday: 58 °F

Past Weeks' High & Low Weather Summary

 TemperatureHumidityPressure
High72 °F (Aug 15, 5:50 PM)100% (Aug 15, 3:20 AM)29.98 "Hg (Aug 15, 3:20 AM)
Low45 °F (Aug 24, 6:50 AM)38% (Aug 27, 4:20 PM)29.18 "Hg (Aug 18, 12:50 PM)
Average58 °F77%29.63 "Hg
* Reported Aug 15 3:20 AM — Aug 30 3:50 AM, Moss, Weather by CustomWeather, © 2014

Note: Actual official high and low records may vary slightly from our data, if they occured in-between our weather recording intervals... More about our weather records

Advertising

Moss weather history for previous 24 hours

 ConditionsComfort  
Time TempWeatherWind HumidityBarometerVisibility
3:50 AM
Aug 30
57 °FOvercast.9 mph82%29.95 "HgN/A
3:20 AM57 °FMostly cloudy.9 mph82%29.95 "HgN/A
2:50 AM59 °FMostly cloudy.12 mph77%29.95 "HgN/A
2:20 AM59 °FMostly cloudy.10 mph72%29.95 "HgN/A
1:50 AM59 °FOvercast.12 mph72%29.95 "HgN/A
1:20 AM59 °FMostly cloudy.10 mph72%29.95 "HgN/A
12:50 AM59 °FMostly cloudy.12 mph72%29.95 "HgN/A
12:20 AM59 °FMostly cloudy.8 mph72%29.95 "HgN/A
11:50 PM
Aug 29
59 °FClear.9 mph68%29.95 "Hg10 mi
11:20 PM59 °FPassing clouds.6 mph68%29.95 "HgN/A
10:50 PM59 °FClear.5 mph72%29.95 "Hg10 mi
8:50 PM61 °FSunny.3 mph83%29.95 "Hg10 mi
8:20 PM63 °FSunny.3 mph73%29.92 "Hg10 mi
7:50 PM63 °FScattered clouds.5 mph77%29.92 "HgN/A
7:20 PM63 °FSunny.3 mph73%29.95 "Hg10 mi
6:50 PM63 °FSunny.2 mph73%29.95 "Hg10 mi
6:20 PM63 °FSunny.2 mph68%29.95 "Hg10 mi
5:50 PM64 °FSunny.1 mph56%29.95 "Hg10 mi
5:20 PM63 °FOvercast.6 mph64%29.95 "HgN/A
4:50 PM63 °FSunny.6 mph68%29.95 "Hg10 mi
4:20 PM64 °FScattered showers. Broken clouds.5 mph64%29.95 "HgN/A
3:50 PM64 °FBroken clouds.6 mph64%29.95 "HgN/A
3:20 PM64 °FPartly sunny.7 mph68%29.95 "HgN/A
2:50 PM66 °FBroken clouds.2 mph64%29.95 "HgN/A
2:20 PM66 °FScattered clouds.7 mph64%29.95 "HgN/A
1:50 PM64 °FScattered clouds.2 mph68%29.95 "HgN/A
1:20 PM66 °FScattered clouds.3 mph60%29.95 "HgN/A
12:50 PM68 °FScattered clouds.2 mph60%29.98 "HgN/A
12:20 PM64 °FPassing clouds.3 mph64%29.98 "HgN/A
11:50 AM66 °FSunny.3 mph64%29.98 "Hg10 mi
11:20 AM64 °FPassing clouds.5 mph64%29.98 "HgN/A
10:50 AM64 °FPassing clouds.6 mph64%29.98 "HgN/A
10:20 AM63 °FPassing clouds.3 mph73%29.98 "HgN/A
9:50 AM61 °FSunny.2 mph77%29.98 "Hg10 mi
9:20 AM57 °FSunny.2 mph82%29.98 "Hg10 mi
8:50 AM54 °FSunny.3 mph88%29.98 "Hg10 mi
8:20 AM52 °FSunny.2 mph94%29.98 "Hg10 mi
7:50 AM50 °FSunny.2 mph94%29.98 "Hg10 mi
7:20 AM50 °FSunny.No wind94%29.98 "Hg10 mi
6:50 AM48 °FPassing clouds.2 mph100%29.98 "HgN/A
6:20 AM48 °FClear.3 mph94%29.98 "Hg10 mi
5:50 AM46 °FPassing clouds.2 mph100%29.98 "HgN/A
5:20 AM46 °FOvercast.2 mph100%29.98 "HgN/A
Weather by CustomWeather, © 2014

See weather overviewHow to use our weather pages